EW6167 Weather Reports


Display with metric or nautical units.
time (UTC)temp
F
wind
direction
speed
MPH
gust
MPH
rain 1hr
in
rain 24hr
in
rain mn
in
humidity
%
barometer
mb
20260903044043 59 145 9.0 0.0 0.00 0.00 0.02 26 1003.2
20260903043558 59 138 10.0 0.0 0.00 0.00 0.02 25 1003.3
20260903043020 59 170 11.0 0.0 0.00 0.00 0.02 25 1003.3
20260903042531 60 149 12.0 0.0 0.00 0.00 0.02 25 1003.4
20260903042054 60 157 13.0 0.0 0.00 0.00 0.02 25 1003.5
20260903041509 59 168 11.0 0.0 0.00 0.00 0.02 25 1003.4
20260903041031 59 172 10.0 0.0 0.00 0.00 0.02 25 1003.4
20260903040548 59 132 11.0 0.0 0.00 0.00 0.02 25 1003.5
20260903040104 60 167 12.0 0.0 0.00 0.00 0.02 25 1003.4
20260903035505 59 141 12.0 0.0 0.00 0.00 0.02 25 1003.2
20260903035024 59 192 12.0 0.0 0.00 0.00 0.02 26 1003.2
20260903034543 60 140 12.0 0.0 0.00 0.00 0.02 25 1003.2
20260903034103 60 178 12.0 0.0 0.00 0.00 0.02 25 1003.0
20260903033506 60 156 12.0 0.0 0.00 0.00 0.02 25 1003.0
20260903033025 60 167 14.0 0.0 0.00 0.00 0.02 24 1003.0
20260903032539 60 162 13.0 0.0 0.00 0.00 0.02 24 1003.1
20260903032057 60 144 12.0 0.0 0.00 0.00 0.02 24 1003.1
20260903031521 61 168 11.0 0.0 0.00 0.00 0.02 24 1003.1
20260903031023 61 175 11.0 0.0 0.00 0.00 0.02 24 1003.2
20260903030535 61 138 12.0 0.0 0.00 0.00 0.02 24 1003.2
20260903030045 61 146 13.0 0.0 0.00 0.00 0.02 23 1003.2
20260903025547 61 164 14.0 0.0 0.00 0.00 0.02 23 1003.2
20260903025053 62 136 15.0 0.0 0.00 0.00 0.02 23 1002.9
20260903024504 62 131 16.0 0.0 0.00 0.00 0.02 23 1002.9
20260903024012 62 160 16.0 0.0 0.00 0.00 0.02 23 1002.8
20260903023537 62 153 16.0 0.0 0.00 0.00 0.02 23 1002.5
20260903023058 62 139 16.0 0.0 0.00 0.00 0.02 23 1002.5
20260903022554 62 178 16.0 0.0 0.00 0.00 0.02 23 1002.6
20260903022005 62 197 17.0 0.0 0.00 0.00 0.02 23 1002.7
20260903021543 63 198 18.0 0.0 0.00 0.00 0.02 23 1002.7
20260903021044 63 178 19.0 0.0 0.00 0.00 0.02 22 1002.5
20260903020556 63 132 18.0 0.0 0.00 0.00 0.02 22 1002.4
20260903020007 63 146 19.0 0.0 0.00 0.00 0.02 22 1002.3
20260903015528 64 180 20.0 0.0 0.00 0.00 0.02 22 1002.5
20260903015046 64 168 20.0 0.0 0.00 0.00 0.02 21 1002.6
20260903014555 64 152 20.0 0.0 0.00 0.00 0.02 21 1002.6
20260903014004 64 186 20.0 0.0 0.00 0.00 0.02 21 1002.6
20260903013515 65 171 20.0 0.0 0.00 0.00 0.02 20 1002.6
20260903013034 65 188 21.0 0.0 0.00 0.00 0.02 20 1002.6
20260903012546 65 170 21.0 0.0 0.00 0.00 0.02 19 1002.3
20260903012055 65 159 20.0 0.0 0.00 0.00 0.02 19 1002.4
20260903011605 66 137 20.0 0.0 0.00 0.00 0.02 20 1002.4
20260903011009 66 190 19.0 0.0 0.00 0.00 0.02 19 1002.4
20260903010536 66 132 18.0 0.0 0.00 0.00 0.02 19 1002.2
20260903010052 67 168 17.0 0.0 0.00 0.00 0.02 19 1002.1
20260903005503 67 166 17.0 0.0 0.00 0.00 0.02 18 1002.1
20260903005021 67 133 18.0 0.0 0.00 0.00 0.02 18 1002.0
20260903004541 67 172 19.0 0.0 0.00 0.00 0.02 18 1002.0
20260903004048 67 178 20.0 0.0 0.00 0.00 0.02 18 1002.1
20260903003557 67 171 19.0 0.0 0.00 0.00 0.02 18 1001.9
20260903003014 67 130 20.0 0.0 0.00 0.00 0.02 18 1002.0
20260903002525 68 196 21.0 0.0 0.00 0.00 0.02 18 1002.1
20260903002029 68 162 20.0 0.0 0.00 0.00 0.02 18 1002.1
20260903001547 69 182 19.0 0.0 0.00 0.00 0.02 18 1001.9
20260903001008 69 167 18.0 0.0 0.00 0.00 0.02 18 1001.7
20260903000531 70 184 18.0 0.0 0.00 0.00 0.02 17 1001.8
20260903000036 69 171 19.0 0.0 0.00 0.00 0.02 18 1001.8
20260902235542 69 163 19.0 0.0 0.00 0.00 0.02 17 1001.8
20260902235056 70 182 20.0 0.0 0.00 0.00 0.02 17 1001.9
20260902234504 70 178 21.0 0.0 0.00 0.00 0.02 16 1001.8
20260902234023 69 201 21.0 0.0 0.00 0.00 0.02 17 1001.8
20260902233543 69 159 21.0 0.0 0.00 0.00 0.02 16 1001.8
20260902233052 70 174 19.0 0.0 0.00 0.00 0.02 16 1001.9
20260902232512 69 182 18.0 0.0 0.00 0.00 0.02 16 1001.8
20260902232038 69 204 19.0 0.0 0.00 0.00 0.02 16 1001.9
20260902231558 69 144 20.0 0.0 0.00 0.00 0.02 16 1001.9
20260902231105 69 188 22.0 0.0 0.00 0.00 0.02 16 1001.8
20260902230504 69 206 23.0 0.0 0.00 0.00 0.02 16 1002.0
20260902230027 69 185 22.0 0.0 0.00 0.00 0.02 15 1001.9
20260902225542 70 186 22.0 0.0 0.00 0.00 0.02 16 1002.1
20260902225053 70 180 22.0 0.0 0.00 0.00 0.02 16 1002.1
20260902224509 72 198 21.0 0.0 0.00 0.00 0.02 15 1002.0
20260902224031 72 193 20.0 0.0 0.00 0.00 0.02 16 1001.9
20260902223553 72 182 18.0 0.0 0.00 0.00 0.02 17 1002.0
20260902223004 72 219 19.0 0.0 0.00 0.00 0.02 18 1001.6
20260902222515 71 202 21.0 0.0 0.00 0.00 0.02 19 1001.7
20260902222033 71 196 21.0 0.0 0.00 0.00 0.02 19 1001.9
20260902221552 71 148 21.0 0.0 0.00 0.00 0.02 19 1001.6
20260902221100 71 116 20.0 0.0 0.00 0.00 0.02 19 1001.8
20260902220515 72 181 21.0 0.0 0.00 0.00 0.02 21 1001.9
20260902220035 72 219 21.0 0.0 0.00 0.00 0.02 20 1001.6
20260902215546 72 203 22.0 0.0 0.00 0.00 0.02 20 1001.6
20260902215056 73 159 24.0 0.0 0.00 0.00 0.02 19 1001.6
20260902214501 73 177 23.0 0.0 0.00 0.00 0.02 20 1001.5
20260902214013 73 215 20.0 0.0 0.00 0.00 0.02 20 1001.4
20260902213530 73 203 21.0 0.0 0.00 0.00 0.02 22 1001.3
20260902213050 73 186 22.0 0.0 0.00 0.00 0.02 22 1001.2
20260902212552 72 135 22.0 0.0 0.00 0.00 0.02 23 1001.3
20260902212016 71 155 23.0 0.0 0.00 0.00 0.02 24 1001.3
20260902211535 72 168 23.0 0.0 0.00 0.00 0.02 23 1001.4
20260902211052 73 195 24.0 0.0 0.00 0.00 0.02 21 1001.3
20260902210511 73 186 24.0 0.0 0.00 0.00 0.02 21 1001.1
20260902210036 73 194 23.0 0.0 0.00 0.00 0.02 22 1001.2
20260902205543 73 175 21.0 0.0 0.00 0.00 0.02 21 1001.2
20260902205001 73 171 23.0 0.0 0.00 0.00 0.02 21 1001.2
20260902204517 73 222 22.0 0.0 0.00 0.00 0.02 21 1001.2
20260902204033 73 208 21.0 0.0 0.00 0.00 0.02 19 1001.2
20260902203559 72 179 22.0 0.0 0.00 0.00 0.02 20 1001.3
20260902203001 73 187 22.0 0.0 0.00 0.00 0.02 20 1000.9
20260902202522 72 198 24.0 0.0 0.00 0.00 0.02 20 1001.1
20260902202031 73 180 26.0 0.0 0.00 0.00 0.02 19 1000.9
20260902201546 73 205 27.0 0.0 0.00 0.00 0.02 19 1000.8
20260902201006 73 208 26.0 0.0 0.00 0.00 0.02 19 1000.6
20260902200527 73 176 25.0 0.0 0.00 0.00 0.02 19 1000.6
20260902200040 73 150 25.0 0.0 0.00 0.00 0.02 18 1000.8
20260902195555 73 167 25.0 0.0 0.00 0.00 0.02 19 1000.8
20260902195003 73 190 25.0 0.0 0.00 0.00 0.02 19 1000.6
20260902194524 73 188 26.0 0.0 0.00 0.00 0.02 19 1000.8
20260902194035 73 208 27.0 0.0 0.00 0.00 0.02 19 1000.7
20260902193552 73 134 27.0 0.0 0.00 0.00 0.02 19 1000.6
20260902193102 73 173 25.0 0.0 0.00 0.00 0.02 19 1000.9
20260902192513 73 180 25.0 0.0 0.00 0.00 0.02 18 1000.8
20260902192026 73 186 26.0 0.0 0.00 0.00 0.02 19 1000.9
20260902191533 73 204 24.0 0.0 0.00 0.00 0.02 19 1001.0
20260902191044 73 171 24.0 0.0 0.00 0.00 0.02 19 1000.9
20260902190555 73 184 25.0 0.0 0.00 0.00 0.02 19 1000.7
20260902190010 73 167 24.0 0.0 0.00 0.00 0.02 23 1000.8
20260902185527 73 178 23.0 0.0 0.00 0.00 0.02 23 1000.7
20260902185042 73 225 23.0 0.0 0.00 0.00 0.02 26 1000.9
20260902184547 73 150 25.0 0.0 0.00 0.00 0.02 25 1000.8
20260902184100 72 180 26.0 0.0 0.00 0.00 0.02 26 1000.9
20260902183513 72 159 25.0 0.0 0.00 0.00 0.02 27 1000.9
20260902183028 72 168 24.0 0.0 0.00 0.00 0.02 23 1000.9
20260902182543 72 181 25.0 0.0 0.00 0.00 0.02 26 1001.1
20260902182056 72 186 23.0 0.0 0.00 0.00 0.02 27 1001.3
20260902181504 72 182 21.0 0.0 0.00 0.00 0.02 29 1001.4
20260902181020 73 178 21.0 0.0 0.00 0.00 0.02 30 1001.5
20260902180542 72 175 22.0 0.0 0.00 0.00 0.02 29 1001.2
20260902180054 72 175 21.0 0.0 0.00 0.00 0.02 30 1001.3
20260902175509 72 163 19.0 0.0 0.00 0.00 0.02 31 1001.3
20260902175029 72 198 18.0 0.0 0.00 0.00 0.02 32 1001.5
20260902174537 71 123 18.0 0.0 0.00 0.00 0.02 35 1001.4
20260902174052 71 163 18.0 0.0 0.00 0.00 0.02 37 1001.5
20260902173557 71 170 20.0 0.0 0.00 0.00 0.02 35 1001.7
20260902173015 70 195 23.0 0.0 0.00 0.00 0.02 36 1001.7
20260902172531 71 165 22.0 0.0 0.00 0.00 0.02 35 1001.7
20260902172037 71 183 21.0 0.0 0.00 0.00 0.02 35 1001.5
20260902171555 70 174 20.0 0.0 0.00 0.00 0.02 37 1001.7
20260902171012 70 144 20.0 0.0 0.00 0.00 0.02 36 1001.6
20260902170529 70 205 20.0 0.0 0.00 0.00 0.02 38 1001.8
20260902170042 70 159 18.0 0.0 0.00 0.00 0.02 37 1001.9
20260902165554 69 200 16.0 0.0 0.00 0.00 0.02 42 1001.8
20260902165103 69 171 15.0 0.0 0.00 0.00 0.02 42 1001.7
20260902164515 70 173 16.0 0.0 0.00 0.00 0.02 43 1001.7
20260902164026 69 141 16.0 0.0 0.00 0.00 0.02 43 1001.5
20260902163532 69 157 16.0 0.0 0.00 0.00 0.02 45 1001.6
20260902163039 69 169 16.0 0.0 0.00 0.00 0.02 44 1001.7
20260902162550 68 121 15.0 0.0 0.00 0.00 0.02 45 1001.5
20260902162057 67 169 14.0 0.0 0.00 0.00 0.02 48 1001.8
20260902161505 66 198 15.0 0.0 0.00 0.00 0.02 52 1001.9
20260902161024 66 164 16.0 0.0 0.00 0.00 0.02 52 1002.1
20260902160547 66 178 16.0 0.0 0.00 0.00 0.02 53 1002.1
20260902160055 66 175 16.0 0.0 0.00 0.00 0.02 53 1002.1
20260902155512 66 186 16.0 0.0 0.00 0.00 0.02 54 1001.9
20260902155022 65 180 15.0 0.0 0.00 0.00 0.02 53 1001.9
20260902154536 65 198 15.0 0.0 0.00 0.00 0.02 54 1002.0
20260902154041 64 193 16.0 0.0 0.00 0.00 0.02 55 1001.9
20260902153552 64 165 15.0 0.0 0.00 0.00 0.02 58 1002.0
20260902153007 63 173 14.0 0.0 0.00 0.00 0.02 60 1002.0
20260902152521 62 182 15.0 0.0 0.00 0.00 0.02 61 1002.1
20260902152036 62 174 15.0 0.0 0.00 0.00 0.02 63 1002.1
20260902151547 61 191 14.0 0.0 0.00 0.00 0.02 64 1002.2
20260902151101 61 175 13.0 0.0 0.00 0.00 0.02 65 1002.2
20260902150512 61 196 14.0 0.0 0.00 0.00 0.02 65 1002.3
20260902150022 61 163 14.0 0.0 0.00 0.00 0.02 63 1002.3
20260902145529 61 167 14.0 0.0 0.00 0.00 0.02 63 1002.6
20260902145034 60 178 15.0 0.0 0.00 0.00 0.02 66 1002.7
20260902144545 60 163 16.0 0.0 0.00 0.00 0.02 66 1002.7
20260902144059 59 158 15.0 0.0 0.00 0.00 0.02 68 1002.7
20260902143521 58 149 14.0 0.0 0.00 0.00 0.02 71 1002.7
20260902143037 57 140 14.0 0.0 0.00 0.00 0.02 71 1002.8
20260902142554 56 171 14.0 0.0 0.00 0.00 0.02 72 1002.8
20260902142103 56 153 14.0 0.0 0.00 0.00 0.02 73 1002.7
20260902141514 55 173 12.0 0.0 0.00 0.00 0.02 74 1002.7
20260902141046 55 159 11.0 0.0 0.00 0.00 0.02 74 1002.7
20260902140605 55 161 11.0 0.0 0.00 0.00 0.02 73 1002.7
20260902140021 55 144 13.0 0.0 0.00 0.00 0.02 73 1002.6
20260902135541 55 188 14.0 0.0 0.00 0.00 0.02 73 1002.6
20260902135055 55 157 15.0 0.0 0.00 0.00 0.02 73 1002.7
20260902134513 55 169 14.0 0.0 0.00 0.00 0.02 74 1002.7
20260902134035 55 179 12.0 0.0 0.00 0.00 0.02 75 1002.7
20260902133547 54 137 11.0 0.0 0.00 0.00 0.01 77 1002.7
20260902133058 53 137 11.0 0.0 0.00 0.00 0.01 78 1002.8
20260902132504 53 138 11.0 0.0 0.00 0.00 0.01 78 1002.7
20260902132012 53 146 12.0 0.0 0.00 0.00 0.01 78 1002.7
20260902131535 53 125 11.0 0.0 0.00 0.00 0.01 78 1002.7
20260902131056 53 160 10.0 0.0 0.00 0.00 0.01 79 1002.7
20260902130512 53 189 11.0 0.0 0.00 0.00 0.01 78 1002.8
20260902130032 53 152 9.0 0.0 0.00 0.00 0.01 78 1002.7
20260902125542 53 144 8.0 0.0 0.00 0.00 0.01 79 1002.8
20260902125055 52 170 10.0 0.0 0.00 0.00 0.01 80 1002.8
20260902124509 53 148 12.0 0.0 0.00 0.00 0.01 79 1002.9
20260902124028 53 151 12.0 0.0 0.00 0.00 0.01 79 1002.9
20260902123538 52 163 11.0 0.0 0.00 0.00 0.01 79 1002.8
20260902123049 53 149 11.0 0.0 0.00 0.00 0.01 78 1002.9
20260902122504 53 152 12.0 0.0 0.00 0.00 0.01 79 1002.9
20260902122017 52 168 11.0 0.0 0.00 0.00 0.01 80 1002.9
20260902121526 51 182 8.0 0.0 0.00 0.00 0.01 82 1003.1
20260902121039 50 172 8.0 0.0 0.00 0.00 0.01 83 1003.1
20260902120556 51 210 9.0 0.0 0.00 0.00 0.01 81 1003.2
20260902120006 51 209 8.0 0.0 0.00 0.00 0.01 82 1003.2
20260902115516 51 197 8.0 0.0 0.00 0.00 0.01 84 1003.3
20260902115036 50 160 7.0 0.0 0.00 0.00 0.01 85 1003.4
20260902114615 49 196 7.0 0.0 0.00 0.00 0.01 86 1003.5
20260902114106 49 200 7.0 0.0 0.00 0.00 0.01 88 1003.7
20260902113508 48 203 6.0 0.0 0.00 0.00 0.01 89 1003.9
20260902113017 47 206 6.0 0.0 0.00 0.00 0.01 89 1003.9
20260902112538 47 204 6.0 0.0 0.00 0.00 0.01 89 1004.0
20260902112049 47 205 6.0 0.0 0.00 0.00 0.01 89 1004.0
20260902111510 47 202 7.0 0.0 0.00 0.00 0.01 89 1004.1
20260902111019 47 205 6.0 0.0 0.00 0.00 0.01 89 1004.1
20260902110534 47 226 5.0 0.0 0.00 0.00 0.01 89 1004.3
20260902110050 47 235 4.0 0.0 0.00 0.00 0.01 87 1004.3
20260902105557 48 196 3.0 0.0 0.00 0.00 0.01 86 1004.4
20260902105003 48 179 1.0 0.0 0.00 0.00 0.01 86 1004.4
20260902104532 49 179 2.0 0.0 0.00 0.00 0.01 87 1004.4
20260902104045 48 179 4.0 0.0 0.00 0.00 0.01 88 1004.5
20260902103555 48 179 4.0 0.0 0.00 0.00 0.01 88 1004.4
20260902103019 48 179 5.0 0.0 0.00 0.00 0.01 87 1004.5
20260902102542 48 179 3.0 0.0 0.00 0.00 0.01 86 1004.5
20260902102051 48 178 3.0 0.0 0.00 0.00 0.01 86 1004.5
20260902101508 48 178 4.0 0.0 0.00 0.00 0.01 87 1004.5
20260902101025 48 178 5.0 0.0 0.00 0.00 0.01 87 1004.6
20260902100546 48 177 5.0 0.0 0.00 0.00 0.01 88 1004.6
20260902100013 48 164 5.0 0.0 0.00 0.00 0.01 88 1004.7
20260902095523 48 166 4.0 0.0 0.00 0.00 0.01 88 1004.8
20260902095031 47 188 4.0 0.0 0.00 0.00 0.01 88 1004.9
20260902094542 47 222 4.0 0.0 0.00 0.00 0.01 88 1004.9
20260902094102 47 222 3.0 0.0 0.00 0.00 0.01 87 1005.0
20260902093515 48 222 3.0 0.0 0.00 0.00 0.01 87 1005.1
20260902093029 48 222 3.0 0.0 0.00 0.00 0.01 86 1005.1
20260902092541 49 222 3.0 0.0 0.00 0.00 0.01 85 1005.1
20260902092052 49 222 4.0 0.0 0.00 0.00 0.01 85 1005.1
20260902091512 50 222 4.0 0.0 0.00 0.00 0.01 84 1005.0
20260902091027 50 222 4.0 0.0 0.00 0.00 0.01 84 1005.0
20260902090542 51 222 5.0 0.0 0.00 0.00 0.01 84 1005.0
20260902090004 51 222 5.0 0.0 0.00 0.00 0.01 84 1005.1
20260902085516 51 242 3.0 0.0 0.00 0.00 0.01 83 1005.1
20260902085028 52 306 3.0 0.0 0.00 0.00 0.01 84 1005.2
20260902084552 52 306 3.0 0.0 0.00 0.00 0.01 84 1005.3
20260902084001 52 311 2.0 0.0 0.00 0.00 0.01 83 1005.3
20260902083526 52 179 2.0 0.0 0.00 0.00 0.01 84 1005.2
20260902083040 52 179 2.0 0.0 0.00 0.00 0.01 84 1005.4
20260902082600 52 182 3.0 0.0 0.00 0.00 0.01 84 1005.4
20260902082003 52 148 4.0 0.0 0.00 0.00 0.01 84 1005.4
20260902081514 52 159 5.0 0.0 0.00 0.00 0.01 85 1005.2
20260902081029 51 204 4.0 0.0 0.00 0.00 0.01 85 1005.4
20260902080541 51 217 4.0 0.0 0.00 0.00 0.01 85 1005.4
20260902080057 51 184 4.0 0.0 0.00 0.00 0.01 84 1005.3
20260902075602 51 183 5.0 0.0 0.00 0.00 0.01 83 1005.2
20260902075007 51 184 6.0 0.0 0.00 0.00 0.01 83 1005.0
20260902074520 51 187 6.0 0.0 0.00 0.00 0.01 83 1004.8
20260902074033 51 200 5.0 0.0 0.00 0.00 0.01 82 1005.0
20260902073541 52 201 5.0 0.0 0.00 0.00 0.01 81 1004.9
20260902073107 52 205 5.0 0.0 0.00 0.00 0.01 80 1004.9
20260902072506 53 232 5.0 0.0 0.00 0.00 0.01 79 1005.0
20260902072035 53 234 6.0 0.0 0.00 0.00 0.01 79 1004.9
20260902071548 52 229 6.0 0.0 0.00 0.00 0.01 79 1005.0
20260902071056 52 209 5.0 0.0 0.00 0.00 0.01 78 1005.0
20260902070605 53 169 5.0 0.0 0.00 0.00 0.01 77 1005.1
20260902070009 54 167 5.0 0.0 0.00 0.00 0.01 76 1004.9
20260902065531 54 127 4.0 0.0 0.00 0.00 0.01 76 1004.8
20260902065051 55 243 5.0 0.0 0.00 0.00 0.01 74 1004.8
20260902064613 55 240 6.0 0.0 0.00 0.00 0.01 72 1004.7
20260902064017 55 246 6.0 0.0 0.00 0.00 0.00 72 1004.7
20260902063536 55 246 5.0 0.0 0.00 0.00 0.00 73 1004.6
20260902063046 56 248 6.0 0.0 0.00 0.00 0.00 73 1004.4
20260902062559 56 247 6.0 0.0 0.00 0.00 0.00 74 1004.9
20260902062010 56 224 5.0 0.0 0.00 0.00 0.00 72 1005.1
20260902061522 56 170 4.0 0.0 0.00 0.00 0.00 72 1004.9
20260902061042 56 148 6.0 0.0 0.00 0.00 0.00 73 1004.9
20260902060556 56 144 7.0 0.0 0.00 0.00 0.00 73 1005.2
20260902060002 56 124 6.0 0.0 0.00 0.00 0.01 72 1005.3
20260902055512 56 127 9.0 0.0 0.00 0.00 0.01 72 1005.2
20260902055034 56 146 13.0 0.0 0.00 0.00 0.01 70 1004.9
20260902054558 57 227 18.0 0.0 0.00 0.00 0.01 66 1005.4
20260902054005 58 240 14.0 0.0 0.00 0.00 0.01 63 1005.0
20260902053520 59 254 7.0 0.0 0.00 0.00 0.01 61 1004.9
20260902053044 59 184 8.0 0.0 0.00 0.00 0.01 57 1005.0
20260902052505 58 127 9.0 0.0 0.00 0.00 0.01 64 1005.0
20260902052028 58 177 12.0 0.0 0.00 0.00 0.00 63 1005.4
20260902051538 60 173 18.0 0.0 0.00 0.00 0.00 59 1005.5
20260902051049 62 124 21.0 0.0 0.00 0.00 0.00 50 1005.4
20260902050514 62 175 22.0 0.0 0.00 0.00 0.00 50 1005.1
20260902050038 61 167 21.0 0.0 0.00 0.00 0.00 51 1005.1
20260902045546 62 167 22.0 0.0 0.00 0.00 0.00 50 1005.2
20260902045100 62 130 21.0 0.0 0.00 0.00 0.00 48 1005.2
20260902044512 63 111 20.0 0.0 0.00 0.00 0.00 46 1005.4